Change the Weather History Date:

Wednesday, November 30, 2011

  Actual Average (KTUL) Record (KTUL)
Temperature  
Mean Temperature 40 °F 44 °F  
Max Temperature 55 °F 54 °F 76 °F (1933)
Min Temperature 24 °F 34 °F 13 °F (1964)
Degree Days  
Heating Degree Days 26 21  
Month to date heating degree days 450  
Since 1 July heating degree days 636  
Moisture  
Dew Point 19 °F    
Average Humidity 50    
Maximum Humidity 85    
Minimum Humidity 18    
Precipitation  
Precipitation 0.00 in 0.08 in 1.70 in (1893)
Month to date precipitation 2.81  
Year to date precipitation 38.48  
Sea Level Pressure  
Sea Level Pressure 30.18 in    
Wind  
Wind Speed 2 mph (SSE)    
Max Wind Speed 12 mph    
Max Gust Speed -    
Visibility 10 miles    
Events      
T = Trace of Precipitation, MM = Missing Value Source: NWS Daily Summary

Daily Weather History Graph

Daily Weather History Graph

Search for Another Location

Airport or City:

Trip Planner

Search our weather history database for the weather conditions in past years. The results will help you decide how hot, cold, wet, or windy it might be!

Date:

Astronomy

Nov. 30, 2011 Rise Set
Actual Time 7:14 AM CST 5:09 PM CST
Civil Twilight 6:46 AM CST 5:38 PM CST
Nautical Twilight 6:15 AM CST 6:09 PM CST
Astronomical Twilight 5:44 AM CST 6:40 PM CST
Moon 11:38 AM CST (11/30) 11:01 PM CST (11/30)
Length of Visible Light 10h 51m
Length of Day
9h 54m
Waxing Crescent, 34% of the Moon is Illuminated
Nov 30
Waxing Crescent
Dec 2
First Quarter
Dec 10
Full
Dec 17
Last Quarter
Dec 24
New

Hourly Weather History & Observations

Time (CST) Temp. Windchill Dew Point Humidity Pressure Visibility Wind Dir Wind Speed Gust Speed Precip Events Conditions
12:53 AM 30.0 °F - 21.0 °F 69% 30.29 in 10.0 mi Calm Calm - N/A   Clear
1:53 AM 27.0 °F - 21.9 °F 81% 30.29 in 10.0 mi Calm Calm - N/A   Clear
2:53 AM 27.0 °F - 21.0 °F 78% 30.30 in 10.0 mi Calm Calm - N/A   Clear
3:53 AM 26.1 °F - 19.9 °F 78% 30.29 in 10.0 mi Calm Calm - N/A   Clear
4:53 AM 26.1 °F - 21.9 °F 84% 30.27 in 10.0 mi Calm Calm - N/A   Clear
5:53 AM 25.0 °F - 21.0 °F 85% 30.26 in 10.0 mi Calm Calm - N/A   Clear
6:53 AM 24.1 °F - 19.9 °F 84% 30.26 in 10.0 mi Calm Calm - N/A   Clear
7:53 AM 26.1 °F - 21.0 °F 81% 30.27 in 10.0 mi Calm Calm - N/A   Unknown
8:53 AM 33.1 °F - 24.1 °F 70% 30.26 in 10.0 mi Calm Calm - N/A   Clear
9:53 AM 41.0 °F 39.0 °F 26.1 °F 55% 30.24 in 10.0 mi SSE 3.5 mph - N/A   Clear
10:53 AM 48.0 °F - 21.0 °F 34% 30.22 in 10.0 mi SSE 5.8 mph - N/A   Clear
11:53 AM 50.0 °F - 17.1 °F 27% 30.20 in 10.0 mi Variable 5.8 mph - N/A   Clear
12:53 PM 53.1 °F - 12.0 °F 20% 30.15 in 10.0 mi South 6.9 mph - N/A   Clear
1:53 PM 55.0 °F - 12.0 °F 18% 30.11 in 10.0 mi South 10.4 mph - N/A   Clear
2:53 PM 55.9 °F - 14.0 °F 19% 30.09 in 10.0 mi SSE 8.1 mph - N/A   Clear
3:53 PM 55.0 °F - 12.9 °F 19% 30.08 in 10.0 mi SSE 11.5 mph - N/A   Clear
4:53 PM 53.1 °F - 14.0 °F 21% 30.06 in 10.0 mi SSE 8.1 mph - N/A   Clear
6:53 PM 46.9 °F - 16.0 °F 29% 30.06 in 10.0 mi South 4.6 mph - N/A   Clear
7:53 PM 45.0 °F - 18.0 °F 34% 30.07 in 10.0 mi Calm Calm - N/A   Clear
9:53 PM 45.0 °F 41.8 °F 18.0 °F 34% 30.06 in 10.0 mi South 5.8 mph - N/A   Clear
10:53 PM 43.0 °F 39.5 °F 19.9 °F 40% 30.08 in 10.0 mi SSE 5.8 mph - N/A   Clear
11:53 PM 42.1 °F 40.2 °F 21.0 °F 43% 30.09 in 10.0 mi South 3.5 mph - N/A   Clear